Location: Linz
(48.3300°N, 14.3000°E)
Time: 21:44:24
(UTC+01:00)

ISS - Pass Details

Date: 13 November 2017
Orbit: 402 x 407 km, 51.6° (Epoch: 21 November)

Event Time Altitude Azimuth Distance (km) Brightness Sun altitude
Exits shadow 05:02:33 66° 45° (NE) 443 -3.6 -20.7°
Drops below altitude 10° 05:05:37 10° 102° (ESE) 1,454 0.2 -20.2°
Sets 05:07:41 0° 105° (ESE) 2,311 1.5 -19.8°
